[[{"header":{"parameterUnit":"m.s-1","parameterCategory":1,"la1":30.2991,"la2":30.254,"lo1":-89.0895,"lo2":-89.0444,"dy":0.0017,"dx":0.0017,"nx":28,"ny":28,"refTime":"2024-02-24T09:00:00:Z","depth":0,"parameterNumber":2,"parameterNumberName":"U-component_of_WINDS"},"data":[0,0,0,0,0,0,0,0,0,0,0,0,0,0,0,0,0,0,0,0,0,0,0,0,0,0,0,0,0,0,0,0,0,0,0,0,0,0,0,0,0,0,0,0,0,0,0,0,0,0,0,0,0,0,0,0,0,0,-0.6351,-0.6352,0,-0.6387,-0.6387,-0.6387,-0.6398,-0.6398,-0.6398,-0.6398,-0.6435,-0.6436,-0.6437,0,0,0,0,0,0,0,0,0,0,0,0,0,-0.6295,-0.6296,-0.6351,-0.6352,-0.6352,-0.6386,-0.6387,-0.6387,-0.6398,-0.6398,-0.6398,-0.6398,-0.6434,-0.6436,-0.6437,0,0,0,0,0,0,0,0,0,0,0,0,0,-0.6324,-0.6296,-0.6351,-0.6362,-0.6363,-0.6386,-0.6387,-0.6388,-0.6398,-0.6398,-0.6398,-0.6398,-0.6434,-0.6436,-0.6437,-0.6453,0,0,-0.6443,-0.6443,0,0,0,0,0,0,0,0,-0.6322,-0.6326,-0.636,-0.6361,-0.6363,-0.6388,-0.6381,-0.641,-0.6398,-0.6385,-0.6398,-0.6397,-0.6419,-0.6422,-0.643,-0.6455,-0.6456,-0.6443,-0.6444,-0.6445,-0.6445,0,0,0,0,0,0,0,-0.632,-0.6324,-0.6365,-0.636,-0.6362,-0.6365,-0.6369,-0.6386,-0.6403,-0.6386,-0.6387,-0.6391,-0.642,-0.6428,-0.643,-0.6457,-0.6443,-0.6444,-0.6445,-0.6446,-0.6497,-0.6497,0,0,0,0,0,0,-0.6316,-0.6323,-0.6364,-0.6366,-0.6341,-0.6366,-0.6371,-0.638,-0.6403,-0.6406,-0.6391,-0.6391,-0.6425,-0.6428,-0.6432,-0.6452,-0.6445,-0.6446,-0.6447,-0.6497,-0.6497,-0.6497,0,0,0,0,0,0,-0.6315,-0.632,-0.6363,-0.6345,-0.6351,-0.6368,-0.6378,-0.6381,-0.6388,-0.6407,-0.641,-0.6396,-0.6425,-0.6429,-0.6448,-0.6453,-0.6447,-0.6449,-0.6496,-0.6497,-0.6497,-0.6492,0,0,0,0,0,0,-0.6313,-0.6319,-0.6325,-0.6345,-0.6351,-0.6378,-0.6378,-0.6382,-0.6391,-0.6392,-0.6412,-0.6415,-0.6425,-0.6445,-0.6449,-0.6456,-0.645,-0.6496,-0.6497,-0.6497,-0.6492,-0.6492,-0.6493,0,0,0,0,0,-0.6311,-0.6323,-0.6325,-0.633,-0.6359,-0.6378,-0.6382,-0.6393,-0.6392,-0.6398,-0.641,-0.6415,-0.6452,-0.6447,-0.6452,-0.6459,-0.6496,-0.6496,-0.6497,-0.6491,-0.6492,-0.6493,0,0,0,0,0,0,-0.6304,-0.6325,-0.6329,-0.6347,-0.636,-0.638,-0.6388,-0.6393,-0.6408,-0.6408,-0.6421,-0.6425,-0.6443,-0.6452,-0.6446,-0.6475,-0.6474,-0.6476,-0.6468,-0.6469,-0.6469,-0.6466,-0.6451,0,0,0,0,0,-0.6304,-0.6317,-0.6336,-0.635,-0.6356,-0.6371,-0.638,-0.6387,-0.6402,-0.6408,-0.6421,-0.6435,-0.645,-0.646,-0.6475,-0.6493,-0.6498,-0.65,-0.6501,-0.6501,-0.6502,-0.6513,-0.6514,-0.65,-0.65,-0.65,0,0,-0.6305,-0.6319,-0.6326,-0.6348,-0.636,-0.6374,-0.6376,-0.639,-0.6401,-0.641,-0.6428,-0.6438,-0.6455,-0.6473,-0.6482,-0.6482,-0.6507,-0.6502,-0.6502,-0.6503,-0.6513,-0.6515,-0.6516,-0.65,-0.65,-0.65,0,0,-0.6314,-0.6325,-0.6338,-0.635,-0.6367,-0.6376,-0.6379,-0.6398,-0.6405,-0.6423,-0.643,-0.6443,-0.6469,-0.6481,-0.649,-0.6503,-0.6508,-0.6507,-0.651,-0.652,-0.6521,-0.6522,-0.6527,-0.6528,-0.6509,-0.6509,-0.6509,0,-0.6313,-0.6334,-0.6345,-0.6358,-0.6368,-0.6377,-0.639,-0.6401,-0.6422,-0.6429,-0.6428,-0.646,-0.6472,-0.6494,-0.6497,-0.6504,-0.6508,-0.6505,-0.652,-0.6521,-0.6522,-0.6527,-0.6528,-0.6509,-0.6509,-0.6509,-0.6509,0,-0.6332,-0.6346,-0.6355,-0.6374,-0.6385,-0.6399,-0.6412,-0.6421,-0.6427,-0.6437,-0.6456,-0.647,-0.6488,-0.6494,-0.65,-0.6516,-0.6515,-0.6517,-0.6516,-0.6523,-0.6528,-0.6529,-0.6508,-0.6508,-0.6508,-0.6509,0,0,-0.6338,-0.6363,-0.6366,-0.6375,-0.6394,-0.6405,-0.6419,-0.6436,-0.6444,-0.6459,-0.6471,-0.6492,-0.6494,-0.6505,-0.6512,-0.6521,-0.653,-0.6522,-0.6523,-0.6523,-0.6549,-0.6547,-0.6549,-0.6534,-0.6534,-0.6534,-0.6547,0,-0.6349,-0.6374,-0.6384,-0.6405,-0.6418,-0.6426,-0.6438,-0.6451,-0.6461,-0.6474,-0.6484,-0.6499,-0.65,-0.6507,-0.6516,-0.6527,-0.6536,-0.6527,-0.6545,-0.6546,-0.6541,-0.6551,-0.655,-0.6561,-0.6549,-0.6549,-0.655,0,-0.6366,-0.638,-0.6402,-0.6419,-0.6425,-0.6436,-0.6452,-0.6464,-0.6479,-0.6486,-0.6497,-0.6504,-0.652,-0.6518,-0.6539,-0.6532,-0.6541,-0.6548,-0.6548,-0.6551,-0.6548,-0.6554,-0.6565,-0.6567,-0.6552,-0.6552,-0.6552,0,-0.6368,-0.6392,-0.6408,-0.6416,-0.6436,-0.6444,-0.6453,-0.6468,-0.6477,-0.6492,-0.6498,-0.6514,-0.6523,-0.6536,-0.6547,-0.6544,-0.6567,-0.6566,-0.6573,-0.6573,-0.6578,-0.6577,-0.659,-0.6583,-0.6583,-0.6583,-0.6582,0,-0.638,-0.6393,-0.6409,-0.6419,-0.6434,-0.6445,-0.646,-0.6469,-0.6482,-0.6495,-0.6503,-0.6514,-0.6528,-0.6541,-0.655,-0.6566,-0.657,-0.6576,-0.6578,-0.6575,-0.6575,-0.6581,-0.6581,-0.6583,-0.6583,-0.6583,-0.6583,0,-0.6385,-0.6397,-0.6414,-0.6432,-0.6437,-0.6447,-0.6463,-0.6473,-0.6482,-0.6497,-0.6502,-0.6517,-0.6533,-0.6545,-0.6566,-0.6572,-0.6589,-0.6591,-0.6584,-0.6585,-0.6591,-0.659,-0.6609,-0.6612,-0.6602,-0.6602,-0.6602,0,-0.6392,-0.6402,-0.6421,-0.6429,-0.6438,-0.6452,-0.6461,-0.6473,-0.6482,-0.65,-0.6508,-0.6524,-0.6538,-0.6563,-0.6576,-0.6592,-0.6595,-0.66,-0.6597,-0.6594,-0.6595,-0.6594,-0.6596,-0.6601,-0.6601,-0.6601,-0.6601,0,-0.6404,-0.6408,-0.6422,-0.6437,-0.6448,-0.6461,-0.6473,-0.648,-0.6494,-0.6504,-0.652,-0.6531,-0.6552,-0.6568,-0.6585,-0.6595,-0.66,-0.6602,-0.6604,-0.6601,-0.6596,-0.6599,-0.6585,-0.6601,-0.6601,-0.6601,-0.6601,-0.6601,-0.641,-0.6419,-0.6434,-0.6448,-0.6459,-0.647,-0.6481,-0.6491,-0.6504,-0.6522,-0.6528,-0.6544,-0.6559,-0.6583,-0.6593,-0.6606,-0.6606,-0.661,-0.6611,-0.6611,-0.6611,-0.6594,-0.6609,-0.6609,-0.6609,-0.6609,-0.6609,0,-0.6422,-0.6431,-0.6444,-0.6462,-0.6473,-0.6477,-0.6491,-0.65,-0.6515,-0.6528,-0.6541,-0.6559,-0.6575,-0.6589,-0.6605,-0.6613,-0.6616,-0.6617,-0.6616,-0.6618,-0.661,-0.6606,-0.6614,-0.6614,-0.6614,-0.6614,-0.6614,-0.6614,-0.6429,-0.6445,-0.6452,-0.6473,-0.6482,-0.6498,-0.6506,-0.6517,-0.6527,-0.6547,-0.656,-0.6569,-0.6582,-0.6599,-0.6614,-0.6618,-0.6623,-0.6624,-0.6628,-0.662,-0.6619,-0.6618,-0.6615,-0.6625,-0.6625,-0.6636,-0.6636,-0.6636]},{"header":{"parameterUnit":"m.s-1","parameterCategory":1,"la1":30.2991,"la2":30.254,"lo1":-89.0895,"lo2":-89.0444,"dy":0.0017,"dx":0.0017,"nx":28,"ny":28,"refTime":"2024-02-24T09:00:00:Z","depth":0,"parameterNumber":3,"parameterNumberName":"V-component_of_WINDS"},"data":[0,0,0,0,0,0,0,0,0,0,0,0,0,0,0,0,0,0,0,0,0,0,0,0,0,0,0,0,0,0,0,0,0,0,0,0,0,0,0,0,0,0,0,0,0,0,0,0,0,0,0,0,0,0,0,0,0,0,2.2956,2.2956,0,2.295,2.295,2.295,2.2915,2.2915,2.2914,2.2913,2.2907,2.2908,2.2909,0,0,0,0,0,0,0,0,0,0,0,0,0,2.2936,2.2937,2.2956,2.2956,2.2955,2.295,2.295,2.295,2.2916,2.2914,2.2913,2.2912,2.2907,2.2908,2.2909,0,0,0,0,0,0,0,0,0,0,0,0,0,2.2939,2.2937,2.2956,2.2938,2.2936,2.295,2.295,2.295,2.2916,2.2914,2.2913,2.2912,2.2907,2.2908,2.2909,2.294,0,0,2.2912,2.2912,0,0,0,0,0,0,0,0,2.2939,2.294,2.294,2.2939,2.2937,2.2932,2.2941,2.2947,2.2916,2.2923,2.2913,2.2911,2.2917,2.2917,2.2919,2.294,2.294,2.2912,2.2913,2.2913,2.2913,0,0,0,0,0,0,0,2.2939,2.294,2.2953,2.294,2.2938,2.293,2.2929,2.2942,2.2927,2.2923,2.292,2.292,2.2916,2.2918,2.2918,2.294,2.2912,2.2913,2.2913,2.2914,2.2987,2.2988,0,0,0,0,0,0,2.2941,2.294,2.2954,2.2953,2.2935,2.2931,2.293,2.2935,2.2927,2.2925,2.2921,2.2918,2.2917,2.2917,2.2918,2.2954,2.2913,2.2914,2.2914,2.2986,2.2987,2.2989,0,0,0,0,0,0,2.2941,2.2943,2.2954,2.2946,2.2947,2.2933,2.2939,2.2936,2.2938,2.2926,2.2923,2.2926,2.2916,2.2917,2.2935,2.2953,2.2914,2.2915,2.2984,2.2986,2.2988,2.3027,0,0,0,0,0,0,2.294,2.2943,2.2954,2.2946,2.2947,2.2971,2.294,2.2936,2.2939,2.2936,2.293,2.2927,2.2915,2.2934,2.2936,2.2954,2.2916,2.2982,2.2985,2.2987,2.3024,2.303,2.3035,0,0,0,0,0,2.294,2.2965,2.2955,2.2957,2.2961,2.2972,2.2973,2.2958,2.2941,2.2953,2.2945,2.2928,2.2951,2.2936,2.2938,2.2957,2.2981,2.2984,2.2987,2.3021,2.3029,2.3035,0,0,0,0,0,0,2.2975,2.2964,2.2952,2.2976,2.2975,2.2966,2.298,2.2966,2.297,2.2966,2.2947,2.2946,2.2968,2.2964,2.2947,2.2987,2.2963,2.2967,2.2988,2.2995,2.3001,2.3001,2.2917,0,0,0,0,0,2.2986,2.2996,2.2985,2.3007,2.3007,2.2994,2.2998,2.2987,2.2985,2.2985,2.2978,2.2978,2.2985,2.299,2.2996,2.3024,2.3022,2.3037,2.3043,2.3048,2.3051,2.3065,2.3072,2.2999,2.2999,2.2999,0,0,2.3008,2.3003,2.301,2.3014,2.3012,2.3023,2.2994,2.3006,2.3014,2.2986,2.3003,2.2999,2.2997,2.302,2.303,2.3018,2.3071,2.3052,2.3056,2.3056,2.3069,2.3076,2.3082,2.3001,2.3001,2.3,0,0,2.3053,2.305,2.3068,2.3067,2.3065,2.3056,2.3061,2.3054,2.305,2.3067,2.3047,2.3056,2.3069,2.3068,2.3069,2.3116,2.31,2.3118,2.3148,2.3162,2.3168,2.3173,2.3189,2.3195,2.3122,2.3122,2.3122,0,2.3081,2.3095,2.308,2.3093,2.3096,2.3072,2.309,2.309,2.309,2.3092,2.3079,2.3095,2.3092,2.3114,2.3126,2.3128,2.3132,2.3119,2.3168,2.3173,2.3178,2.3193,2.3199,2.3124,2.3124,2.3124,2.3123,0,2.3129,2.314,2.3155,2.3156,2.316,2.3176,2.3163,2.3169,2.3158,2.315,2.3168,2.3164,2.3169,2.3174,2.3162,2.3195,2.3187,2.3172,2.3147,2.3187,2.3201,2.3207,2.3127,2.3127,2.3126,2.3125,0,0,2.3195,2.3188,2.3194,2.3194,2.319,2.3198,2.3213,2.3218,2.3224,2.3225,2.3237,2.3249,2.3235,2.3236,2.3225,2.3238,2.3275,2.322,2.322,2.323,2.331,2.3322,2.3329,2.3265,2.3266,2.3266,2.331,0,2.3239,2.3264,2.325,2.3278,2.3287,2.3266,2.3279,2.3278,2.3272,2.328,2.3273,2.3282,2.3262,2.3263,2.3275,2.3268,2.3291,2.3265,2.3276,2.3276,2.3276,2.3336,2.3349,2.339,2.3316,2.3317,2.3317,0,2.3292,2.3295,2.3324,2.3319,2.3322,2.3334,2.3338,2.3346,2.3345,2.3339,2.3342,2.3328,2.3343,2.3319,2.334,2.3322,2.3326,2.3324,2.3325,2.3325,2.3299,2.3338,2.3403,2.3409,2.3326,2.3325,2.3325,0,2.3337,2.3349,2.3367,2.3368,2.3363,2.3372,2.337,2.3368,2.3372,2.3376,2.3378,2.3383,2.3386,2.3391,2.3379,2.3363,2.34,2.3376,2.3396,2.3397,2.3404,2.3404,2.3471,2.3408,2.3408,2.3408,2.3408,0,2.3386,2.3404,2.3388,2.3399,2.3419,2.3404,2.3424,2.342,2.3418,2.3428,2.341,2.342,2.3404,2.3412,2.3403,2.3421,2.3423,2.3419,2.3416,2.342,2.3421,2.3422,2.3418,2.341,2.3409,2.3409,2.3409,0,2.3439,2.3429,2.3448,2.3442,2.3441,2.3455,2.345,2.346,2.3454,2.3467,2.3469,2.3458,2.3467,2.3456,2.3464,2.3458,2.3483,2.3476,2.3483,2.3481,2.3502,2.35,2.3571,2.358,2.3512,2.3513,2.3513,0,2.3471,2.3485,2.348,2.3486,2.3485,2.3494,2.3499,2.3485,2.349,2.349,2.3501,2.3508,2.3514,2.3529,2.3522,2.3529,2.3521,2.3546,2.3522,2.3526,2.3521,2.352,2.3522,2.3551,2.3552,2.3552,2.3553,0,2.3528,2.3523,2.353,2.3535,2.3541,2.3544,2.3546,2.3552,2.3538,2.3544,2.3554,2.3558,2.3567,2.3574,2.3579,2.3577,2.3563,2.3561,2.3566,2.357,2.3573,2.3571,2.3496,2.3559,2.3558,2.3558,2.3557,2.3557,2.3572,2.3583,2.3581,2.359,2.359,2.3593,2.3602,2.3597,2.3604,2.361,2.3602,2.3613,2.3613,2.3617,2.3617,2.3626,2.3615,2.3623,2.3624,2.3626,2.3629,2.3572,2.3627,2.3627,2.3627,2.3627,2.3626,0,2.3628,2.3626,2.3634,2.3638,2.3645,2.3631,2.3633,2.3639,2.365,2.3651,2.3656,2.3667,2.3675,2.3669,2.3676,2.3684,2.3678,2.3686,2.3685,2.3685,2.3639,2.3634,2.3691,2.3691,2.3691,2.3691,2.3691,2.3691,2.3658,2.3676,2.367,2.3689,2.3687,2.3698,2.37,2.3703,2.3703,2.3716,2.3723,2.3719,2.3717,2.3723,2.373,2.3728,2.3731,2.3742,2.3738,2.3695,2.3688,2.3682,2.3677,2.3743,2.3743,2.3783,2.3784,2.3784]}]]